CO-58
1 28895U 05043F 09274.17005537 .00000045 00000-0 18836-4 0 4088
2 28895 098.0427 161.7287 0018343 019.7635 340.4255 14.59798613209193
FALCON
1 30776U 07006E 09273.96464815 .00000474 00000-0 37297-4 0 06747
2 30776 035.4331 177.6093 0000339 071.5624 288.5129 15.03315252141027
MAST
1 31126U 07012K 09274.73612497 .00000044 00000-0 20795-4 0 6985
2 31126 097.9767 324.5963 0093988 309.6694 049.6232 14.53518962130516
CAPE1
1 31130U 07012P 09273.77749049 .00000125 00000-0 39783-4 0 7075
2 31130 097.9787 321.6332 0102220 318.8764 040.4731 14.52089892130013
COMPASS
1 32787U 08021E 09273.79266734 .00000068 00000-0 15448-4 0 04819
2 32787 097.9318 336.6641 0016680 052.1208 308.1513 14.81661087077089
AAUSAT2
1 32788U 08021F 09274.83213886 .00000323 00000-0 47621-4 0 4739
2 32788 097.9325 337.7714 0016553 050.2016 310.0618 14.81788728 77244
DO-64
1 32789U 08021G 09274.71870176 .00000295 00000-0 44010-4 0 4881
2 32789 097.9365 337.8921 0016518 048.0874 312.1731 14.81802706 77228
CO-66
1 32791U 08021J 09274.72595817 .00000018 00000-0 91346-5 0 4700
2 32791 097.9336 337.6215 0017088 046.6416 313.6214 14.81482957 77181
RS-30
1 32953U 08025A 09274.75794789 .00000010 00000-0 00000 0 0 4181
2 32953 082.5046 190.3496 0018632 310.5441 049.4015 12.43003183 61633
TACSAT-3
1 35001U 09028A 09273.59158009 .00002944 00000-0 79092-4 0 1099
2 35001 040.4573 330.1657 0024041 229.0687 130.8045 15.39233803 20598
PHARMSAT
1 35002U 09028B 09274.56281472 .00002793 00000-0 73332-4 0 1069
2 35002 040.4709 323.5713 0027702 239.4337 120.3743 15.39990023 20743
HAWKSAT1
1 35003U 09028C 09273.54178853 .00005565 00000-0 13668-3 0 1105
2 35003 040.4629 328.9203 0027242 236.7079 123.1126 15.40769131 20607
CP6
1 35004U 09028D 09274.51232095 .00006484 00000-0 15782-3 0 1057
2 35004 040.4616 323.0815 0026983 243.8129 115.9908 15.40859667 20741
AEROCUB3
1 35005U 09028E 09273.55648074 .00005817 00000-0 14330-3 0 1056
2 35005 040.4745 329.1869 0026916 233.2775 126.5567 15.40630500 20592
DRAGNSAT
1 35690U 09038B 09273.94974241 .00036014 00000-0 16580-3 0 00745
2 35690 051.6379 120.0811 0002791 310.1839 049.8917 15.83224751009884
POLLUX
1 35693U 09038E 09274.73012306 .00031653 00000-0 15079-3 0 635
2 35693 051.6389 116.3004 0003159 236.9581 123.1079 15.82561244 9973
CASTOR
1 35694U 09038F 09273.80762553 .00016478 00000-0 85241-4 0 00603
2 35694 051.6404 121.4040 0003013 247.4933 112.5827 15.81248934009820
METEOR-M
1 35865U 09049A 09274.16635696 .00000176 00000-0 10000-3 0 138
2 35865 098.7998 324.3052 0003207 049.6494 310.4916 14.21827409 1919
STERKH-2
1 35866U 09049B 09273.66948054 .00000178 00000-0 10000-3 0 00163
2 35866 098.8005 323.8238 0003940 043.9397 316.2066 14.22296780001848
FREGAT-I
1 35867U 09049C 09274.72543441 .00002264 00000-0 10000-3 0 262
2 35867 097.3735 324.5402 0009030 235.3065 124.7206 15.22715157 2135
SUMBDILA
1 35870U 09049F 09274.79035001 .00000979 00000-0 41866-4 0 379
2 35870 097.3714 324.5940 0010355 241.2516 118.8200 15.22796602 2145
